Overview Statistics Trail Chart Weather Telemetry Raw packets
 

This is the latest recevied weather packets stored in our database for station/object W0WFX-2. If no packets are shown the sender has not sent any weather packets the latest 10 day(s).

<< 73 74 75 76 77 78 79 >>
Time Temp. Humidity Pressure Rain* Wind** Luminosity Snow
1788119493 37.78° C 35% 1012.2 hPa 0 mm - 461 W/m² -
1788119192 37.78° C 34% 1012.2 hPa 0 mm - 637 W/m² -
1788118892 37.78° C 35% 1012.3 hPa 0 mm - 682 W/m² -
1788118587 37.22° C 35% 1012.2 hPa 0 mm - 704 W/m² -
1788118281 37.78° C 34% 1012.2 hPa 0 mm - 725 W/m² -
1788117977 37.78° C 35% 1012.3 hPa 0 mm - 730 W/m² -
1788117677 37.78° C 35% 1012.5 hPa 0 mm - 693 W/m² -
1788117373 37.78° C 37% 1012.7 hPa 0 mm - 709 W/m² -
1788117068 37.22° C 35% 1012.5 hPa 0 mm - 636 W/m² -
1788116763 37.22° C 35% 1012.6 hPa 0 mm - 710 W/m² -
1788116459 36.67° C 37% 1012.5 hPa 0 mm - 704 W/m² -
1788116157 36.67° C 38% 1012.9 hPa 0 mm - 646 W/m² -
1788115853 36.67° C 37% 1012.7 hPa 0 mm - 651 W/m² -
1788115552 36.67° C 37% 1012.7 hPa 0 mm - 755 W/m² -
1788115246 36.67° C 39% 1012.8 hPa 0 mm - 799 W/m² -
1788114941 36.11° C 39% 1012.8 hPa 0 mm - 714 W/m² -
1788114637 36.11° C 39% 1012.8 hPa 0 mm - 687 W/m² -
1788114332 36.11° C 39% 1012.8 hPa 0 mm - 712 W/m² -
1788114028 36.11° C 38% 1013.1 hPa 0 mm - 736 W/m² -
1788113725 35.56° C 39% 1013 hPa 0 mm - 754 W/m² -
1788113424 36.11° C 38% 1013.1 hPa 0 mm - 721 W/m² -
1788113124 35.56° C 39% 1013.1 hPa 0 mm - 749 W/m² -
1788112823 35.56° C 40% 1013.3 hPa 0 mm - 751 W/m² -
1788112522 35° C 40% 1013.1 hPa 0 mm - 742 W/m² -
1788112218 35.56° C 39% 1013.3 hPa 0 mm - 738 W/m² -

* Rain latest hour (hover to see other rain measurements)
** Current wind speed in m/s (hover to see current wind gust speed)